Terminal Aerodrome Forecast
Issued by NWS Bismarck, ND

Home | Current Version | Previous Version | Graphics & Text | Print | Product List | Glossary On
Versions: 1 2 3 4 5 6 7 8 9 10 11 12 13 14 15 16 17 18 19 20
000
FTUS43 KBIS 231100
TAFBIS
TAF
KBIS 231133Z 2312/2412 10006KT P6SM SCT100
     FM231500 15014KT P6SM SCT050
     FM240200 13011KT P6SM BKN050
      TEMPO 2405/2409 -TSRA OVC040CB=

USA.gov is the U.S. government's official web portal to all federal, state and local government web resources and services.